Weather History for Avoca, PA

Change the Weather History Date:

Tuesday, December 4, 2012

  Actual Average Record
Temperature  
Mean Temperature 56 °F 35 °F  
Max Temperature 63 °F 41 °F 69 °F (1998)
Min Temperature 48 °F 28 °F 4 °F (1926)
Degree Days  
Heating Degree Days 9 30  
Month to date heating degree days 70 119  
Since 1 July heating degree days 1297 1432  
Cooling Degree Days 0 0  
Month to date cooling degree days 0 0  
Year to date cooling degree days 864 580  
Growing Degree Days 4 (Base 50)    
Moisture  
Dew Point 49 °F    
Average Humidity 80    
Maximum Humidity 93    
Minimum Humidity 67    
Precipitation  
Precipitation 0.02 in 0.10 in 2.58 in (1950)
Month to date precipitation 0.06 0.40  
Year to date precipitation 34.23 35.98  
Sea Level Pressure  
Sea Level Pressure 30.14 in    
Wind  
Wind Speed 4 mph (SW)    
Max Wind Speed 13 mph    
Max Gust Speed 26 mph    
Visibility 5 miles    
Events Fog , Rain    
T = Trace of Precipitation, MM = Missing Value Source: NWS Daily Summary

Daily Weather History Graph

Daily Weather History Graph

Search for Another Location

Airport:

Trip Planner

Search our weather history database for the weather conditions in past years. The results will help you decide how hot, cold, wet, or windy it might be!

Date:

Astronomy

Dec. 04, 2012 Rise Set
Actual Time 7:12 AM EST 4:33 PM EST
Civil Twilight 6:41 AM EST 5:04 PM EST
Nautical Twilight 6:07 AM EST 5:39 PM EST
Astronomical Twilight 5:34 AM EST 6:12 PM EST
Moon 10:21 PM EST (12/4) 11:03 AM EST (12/4)
Length of Visible Light 10h 22m
Length of Day
9h 20m
Waning Gibbous, 69% of the Moon is Illuminated
Dec 4
Waning Gibbous
Dec 6
Last Quarter
Dec 13
New
Dec 20
First Quarter
Dec 28
Full

Hourly Weather History & Observations

Time (EST) Temp. Dew Point Humidity Pressure Visibility Wind Dir Wind Speed Gust Speed Precip Events Conditions
12:54 AM 48.0 °F 45.0 °F 89% 30.20 in 7.0 mi Calm Calm - N/A   Overcast
1:54 AM 50.0 °F 46.9 °F 89% 30.20 in 6.0 mi NW 4.6 mph - 0.00 in Rain Light Rain
2:47 AM 50.0 °F 46.4 °F 87% 30.21 in 5.0 mi Calm Calm - 0.00 in   Overcast
2:54 AM 50.0 °F 46.9 °F 89% 30.21 in 4.0 mi Calm Calm - 0.00 in Rain Light Rain
3:54 AM 50.0 °F 48.0 °F 93% 30.19 in 2.5 mi Calm Calm - 0.01 in Rain Light Rain
4:01 AM 50.0 °F 48.2 °F 94% 30.19 in 3.0 mi Calm Calm - 0.00 in Rain Light Rain
4:54 AM 51.1 °F 50.0 °F 96% 30.19 in 3.0 mi Calm Calm - 0.00 in   Overcast
5:10 AM 50.0 °F 48.2 °F 94% 30.19 in 1.8 mi Calm Calm - 0.00 in Rain Light Rain
5:17 AM 50.0 °F 48.2 °F 94% 30.19 in 2.0 mi Calm Calm - 0.00 in Rain Light Rain
5:34 AM 50.0 °F 48.2 °F 94% 30.19 in 3.0 mi NE 3.5 mph - 0.00 in Rain Light Rain
5:54 AM 51.1 °F 48.9 °F 92% 30.19 in 3.0 mi NE 4.6 mph - 0.01 in   Overcast
6:11 AM 51.8 °F 48.2 °F 88% 30.19 in 2.5 mi Calm Calm - 0.00 in   Overcast
6:21 AM 51.8 °F 48.2 °F 88% 30.19 in 3.0 mi Calm Calm - 0.00 in Rain Light Rain
6:26 AM 50.0 °F 48.2 °F 94% 30.19 in 1.8 mi Calm Calm - 0.00 in Rain Light Rain
6:42 AM 51.8 °F 48.2 °F 88% 30.18 in 2.5 mi Calm Calm - 0.00 in   Mostly Cloudy
6:54 AM 51.1 °F 48.9 °F 92% 30.19 in 3.0 mi Calm Calm - 0.00 in   Scattered Clouds
7:02 AM 50.0 °F 48.2 °F 94% 30.18 in 1.5 mi Calm Calm - N/A   Partly Cloudy
7:13 AM 50.0 °F 48.2 °F 94% 30.19 in 0.8 mi Calm Calm - N/A   Mist
7:22 AM 48.2 °F 48.2 °F 100% 30.19 in 0.5 mi Calm Calm - N/A Fog Fog
7:44 AM 51.8 °F 48.2 °F 88% 30.19 in 2.0 mi Calm Calm - N/A   Mostly Cloudy
7:54 AM 50.0 °F 48.9 °F 96% 30.19 in 1.5 mi Calm Calm - N/A   Mostly Cloudy
8:11 AM 51.8 °F 50.0 °F 94% 30.19 in 2.5 mi Calm Calm - N/A   Partly Cloudy
8:19 AM 51.8 °F 50.0 °F 94% 30.19 in 3.0 mi Calm Calm - N/A   Clear
8:26 AM 51.8 °F 50.0 °F 94% 30.19 in 1.8 mi Calm Calm - N/A   Clear
8:36 AM 53.6 °F 51.8 °F 94% 30.19 in 3.0 mi Calm Calm - N/A   Clear
8:54 AM 55.9 °F 53.1 °F 90% 30.19 in 4.0 mi Calm Calm - N/A   Clear
9:54 AM 57.9 °F 52.0 °F 81% 30.18 in 6.0 mi Calm Calm - N/A   Haze
10:54 AM 60.1 °F 52.0 °F 75% 30.18 in 9.0 mi SSW 4.6 mph - N/A   Clear
11:54 AM 62.1 °F 51.1 °F 67% 30.14 in 9.0 mi Variable 5.8 mph - N/A   Clear
12:54 PM 60.8 °F 51.8 °F 72% 30.11 in 9.0 mi SSW 8.1 mph - N/A   Clear
1:54 PM 63.0 °F 51.1 °F 65% 30.09 in 10.0 mi South 3.5 mph - N/A   Partly Cloudy
2:54 PM 62.1 °F 51.1 °F 67% 30.06 in 10.0 mi SSE 9.2 mph - N/A   Clear
3:54 PM 61.0 °F 50.0 °F 67% 30.06 in 9.0 mi Variable 6.9 mph - N/A   Clear
4:54 PM 57.9 °F 50.0 °F 75% 30.05 in 7.0 mi West 9.2 mph - N/A   Clear
5:54 PM 55.9 °F 51.1 °F 84% 30.03 in 6.0 mi Variable 3.5 mph - N/A   Haze
6:54 PM 60.1 °F 51.1 °F 72% 30.01 in 7.0 mi South 9.2 mph - N/A   Clear
7:54 PM 57.9 °F 51.1 °F 78% 29.99 in 6.0 mi SW 8.1 mph - N/A   Haze
8:54 PM 57.9 °F 50.0 °F 75% 29.99 in 7.0 mi SW 6.9 mph - N/A   Mostly Cloudy
9:54 PM 59.0 °F 50.0 °F 72% 29.96 in 8.0 mi SW 5.8 mph - N/A   Mostly Cloudy
10:54 PM 59.0 °F 48.9 °F 69% 29.93 in 10.0 mi WSW 6.9 mph - N/A   Overcast
11:54 PM 60.1 °F 48.9 °F 67% 29.90 in 10.0 mi SSW 8.1 mph - 0.00 in   Overcast